When you browse on this site, cookies collect data to enhance your experience and personalize the content and advertising you see.
Visit our Privacy Policy to learn more. By continuing to use the site, you agree to this use of cookies and data.
  • In Hungary
  • List of Countries
  • For 7 days
  • Water Temperature
  • Satellite Maps
  • Weather Map
  • News
  • Weather Widgets
  • user-avatar
    Login

    Hourly Weather El Guna

    Today, 18 January, Friday

    Time Temperature Precipitation Wind Pressure Humidity
    00:00 +10°C° 0 mm 1 mps 738 mmHg 42%
    01:00 +10°C° 0 mm 1 mps 738 mmHg 44%
    02:00 +10°C° 0 mm 1 mps 738 mmHg 48%
    03:00 +9°C° 0 mm 1 mps 738 mmHg 51%
    04:00 +9°C° 0 mm 1 mps 737 mmHg 54%
    05:00 +9°C° 0 mm 1 mps 737 mmHg 57%
    06:00 +10°C° 0 mm 1 mps 737 mmHg 54%
    07:00 +11°C° 0 mm 1 mps 738 mmHg 51%
    08:00 +13°C° 0 mm 1 mps 738 mmHg 47%
    09:00 +14°C° 0 mm 2 mps 738 mmHg 43%
    10:00 +16°C° 0 mm 2 mps 738 mmHg 39%
    11:00 +17°C° 0 mm 2 mps 738 mmHg 35%
    12:00 +18°C° 0 mm 3 mps 737 mmHg 33%
    13:00 +19°C° 0 mm 3 mps 737 mmHg 30%
    14:00 +19°C° 0 mm 3 mps 737 mmHg 28%
    15:00 +19°C° 0 mm 3 mps 737 mmHg 32%
    16:00 +18°C° 0 mm 3 mps 736 mmHg 36%
    17:00 +17°C° 0 mm 3 mps 736 mmHg 40%
    18:00 +16°C° 0 mm 3 mps 736 mmHg 47%
    19:00 +15°C° 0 mm 2 mps 736 mmHg 54%
    20:00 +13°C° 0 mm 2 mps 736 mmHg 61%
    21:00 +13°C° 0 mm 2 mps 736 mmHg 61%
    22:00 +12°C° 0 mm 1 mps 737 mmHg 61%
    23:00 +12°C° 0 mm 1 mps 737 mmHg 61%

    Tomorrow, 19 January, Saturday

    Time Temperature Precipitation Wind Pressure Humidity
    00:00 +12°C° 0 mm 1 mps 736 mmHg 60%
    01:00 +11°C° 0 mm 1 mps 736 mmHg 59%
    02:00 +11°C° 0 mm 1 mps 736 mmHg 57%
    03:00 +10°C° 0 mm 1 mps 736 mmHg 57%
    04:00 +10°C° 0 mm 1 mps 736 mmHg 56%
    05:00 +10°C° 0 mm 1 mps 736 mmHg 55%
    06:00 +11°C° 0 mm 1 mps 736 mmHg 50%
    07:00 +12°C° 0 mm 1 mps 736 mmHg 45%
    08:00 +13°C° 0 mm 1 mps 737 mmHg 40%
    09:00 +15°C° 0 mm 1 mps 737 mmHg 36%
    10:00 +17°C° 0 mm 2 mps 737 mmHg 31%
    11:00 +18°C° 0 mm 2 mps 737 mmHg 26%
    12:00 +19°C° 0 mm 2 mps 737 mmHg 24%
    13:00 +20°C° 0 mm 2 mps 736 mmHg 22%
    14:00 +21°C° 0 mm 2 mps 736 mmHg 19%
    15:00 +20°C° 0 mm 2 mps 736 mmHg 23%
    16:00 +19°C° 0 mm 2 mps 736 mmHg 26%
    17:00 +18°C° 0 mm 3 mps 736 mmHg 29%
    18:00 +17°C° 0 mm 2 mps 736 mmHg 35%
    19:00 +16°C° 0 mm 2 mps 736 mmHg 41%
    20:00 +14°C° 0 mm 1 mps 736 mmHg 48%
    21:00 +14°C° 0 mm 1 mps 736 mmHg 47%
    22:00 +14°C° 0 mm 1 mps 736 mmHg 46%
    23:00 +14°C° 0 mm 1 mps 737 mmHg 45%

    Day after tomorrow, 20 January, Sunday

    Time Temperature Precipitation Wind Pressure Humidity
    00:00 +13°C° 0 mm 1 mps 736 mmHg 43%
    01:00 +13°C° 0 mm 1 mps 736 mmHg 41%
    02:00 +12°C° 0 mm 1 mps 736 mmHg 40%
    03:00 +12°C° 0 mm 1 mps 736 mmHg 39%
    04:00 +12°C° 0 mm 1 mps 735 mmHg 38%
    05:00 +12°C° 0 mm 1 mps 735 mmHg 37%
    06:00 +13°C° 0 mm 1 mps 736 mmHg 34%
    07:00 +14°C° 0 mm 1 mps 736 mmHg 30%
    08:00 +15°C° 0 mm 1 mps 737 mmHg 27%
    09:00 +18°C° 0 mm 1 mps 737 mmHg 24%
    10:00 +20°C° 0 mm 1 mps 737 mmHg 21%
    11:00 +22°C° 0 mm 1 mps 737 mmHg 17%
    12:00 +23°C° 0 mm 1 mps 736 mmHg 17%
    13:00 +23°C° 0 mm 2 mps 736 mmHg 16%
    14:00 +24°C° 0 mm 2 mps 735 mmHg 15%
    15:00 +23°C° 0 mm 2 mps 735 mmHg 18%
    16:00 +21°C° 0 mm 2 mps 735 mmHg 20%
    17:00 +20°C° 0 mm 2 mps 734 mmHg 23%
    18:00 +20°C° 0 mm 1 mps 735 mmHg 27%
    19:00 +19°C° 0 mm 1 mps 735 mmHg 31%
    20:00 +15°C° 0 mm 0 mps 735 mmHg 35%
    21:00 +15°C° 0 mm 0 mps 735 mmHg 33%
    22:00 +16°C° 0 mm 1 mps 735 mmHg 32%
    23:00 +16°C° 0 mm 1 mps 735 mmHg 31%

    21 January, Monday

    Time Temperature Precipitation Wind Pressure Humidity
    00:00 +16°C° 0 mm 1 mps 735 mmHg 30%
    01:00 +16°C° 0 mm 1 mps 735 mmHg 28%
    02:00 +16°C° 0 mm 1 mps 735 mmHg 27%
    03:00 +16°C° 0 mm 1 mps 734 mmHg 25%
    04:00 +15°C° 0 mm 1 mps 734 mmHg 23%
    05:00 +15°C° 0 mm 1 mps 734 mmHg 21%
    06:00 +16°C° 0 mm 1 mps 734 mmHg 19%
    07:00 +19°C° 0 mm 1 mps 735 mmHg 17%
    08:00 +18°C° 0 mm 0 mps 735 mmHg 14%
    09:00 +21°C° 0 mm 1 mps 735 mmHg 13%
    10:00 +23°C° 0 mm 1 mps 735 mmHg 12%
    11:00 +24°C° 0 mm 1 mps 736 mmHg 11%
    12:00 +25°C° 0 mm 2 mps 735 mmHg 11%
    13:00 +25°C° 0 mm 2 mps 735 mmHg 11%
    14:00 +26°C° 0 mm 2 mps 734 mmHg 11%
    15:00 +25°C° 0 mm 2 mps 734 mmHg 13%
    16:00 +24°C° 0 mm 2 mps 734 mmHg 15%
    17:00 +22°C° 0 mm 3 mps 734 mmHg 17%
    18:00 +21°C° 0 mm 2 mps 734 mmHg 19%
    19:00 +19°C° 0 mm 2 mps 735 mmHg 20%
    20:00 +19°C° 0 mm 1 mps 735 mmHg 22%
    21:00 +18°C° 0 mm 1 mps 735 mmHg 21%
    22:00 +18°C° 0 mm 1 mps 735 mmHg 20%
    23:00 +16°C° 0 mm 1 mps 735 mmHg 19%

    22 January, Tuesday

    Time Temperature Precipitation Wind Pressure Humidity
    00:00 +16°C° 0 mm 1 mps 735 mmHg 20%
    01:00 +15°C° 0 mm 1 mps 734 mmHg 20%
    02:00 +15°C° 0 mm 1 mps 734 mmHg 21%
    03:00 +15°C° 0 mm 1 mps 734 mmHg 22%
    04:00 +14°C° 0 mm 1 mps 734 mmHg 23%
    05:00 +14°C° 0 mm 1 mps 734 mmHg 25%
    06:00 +15°C° 0 mm 1 mps 734 mmHg 23%
    07:00 +16°C° 0 mm 1 mps 735 mmHg 22%
    08:00 +18°C° 0 mm 1 mps 735 mmHg 20%
    09:00 +20°C° 0 mm 1 mps 735 mmHg 19%
    10:00 +22°C° 0 mm 1 mps 735 mmHg 17%
    11:00 +24°C° 0 mm 2 mps 735 mmHg 15%
    12:00 +25°C° 0 mm 2 mps 735 mmHg 15%
    13:00 +25°C° 0 mm 2 mps 734 mmHg 14%
    14:00 +26°C° 0 mm 2 mps 734 mmHg 14%
    15:00 +25°C° 0 mm 2 mps 734 mmHg 17%
    16:00 +24°C° 0 mm 2 mps 734 mmHg 20%
    17:00 +23°C° 0 mm 2 mps 734 mmHg 23%
    18:00 +20°C° 0 mm 2 mps 734 mmHg 26%
    19:00 +20°C° 0 mm 1 mps 734 mmHg 30%
    20:00 +18°C° 0 mm 1 mps 734 mmHg 33%
    21:00 +18°C° 0 mm 1 mps 734 mmHg 33%
    22:00 +16°C° 0 mm 1 mps 734 mmHg 32%
    23:00 +16°C° 0 mm 1 mps 734 mmHg 32%

    23 January, Wednesday

    Time Temperature Precipitation Wind Pressure Humidity
    00:00 +16°C° 0 mm 1 mps 734 mmHg 31%
    01:00 +15°C° 0 mm 1 mps 733 mmHg 31%
    02:00 +15°C° 0 mm 1 mps 733 mmHg 31%
    03:00 +14°C° 0 mm 1 mps 733 mmHg 31%
    04:00 +14°C° 0 mm 1 mps 733 mmHg 31%
    05:00 +14°C° 0 mm 1 mps 733 mmHg 31%
    06:00 +15°C° 0 mm 1 mps 733 mmHg 28%
    07:00 +16°C° 0 mm 1 mps 734 mmHg 25%
    08:00 +18°C° 0 mm 1 mps 734 mmHg 23%
    09:00 +20°C° 0 mm 1 mps 734 mmHg 21%
    10:00 +22°C° 0 mm 1 mps 734 mmHg 19%
    11:00 +23°C° 0 mm 1 mps 734 mmHg 18%
    12:00 +24°C° 0 mm 2 mps 734 mmHg 17%
    13:00 +25°C° 0 mm 2 mps 733 mmHg 16%
    14:00 +25°C° 0 mm 2 mps 732 mmHg 15%
    15:00 +24°C° 0 mm 2 mps 732 mmHg 19%
    16:00 +23°C° 0 mm 2 mps 732 mmHg 22%
    17:00 +21°C° 0 mm 2 mps 732 mmHg 25%
    18:00 +21°C° 0 mm 1 mps 732 mmHg 30%
    19:00 +19°C° 0 mm 1 mps 732 mmHg 34%
    20:00 +16°C° 0 mm 0 mps 732 mmHg 38%
    21:00 +15°C° 0 mm 0 mps 732 mmHg 38%
    22:00 +15°C° 0 mm 0 mps 732 mmHg 37%
    23:00 +15°C° 0 mm 0 mps 732 mmHg 36%
    Show more